DECAYED
Showing default

W-SERIES 5, 66747 (Decayed)

Orbit data source: Space-Track

W-SERIES 5, 66747 was a payload satellite owned by Varda Space (US) in SSO that was launched on Fri, 28 Nov 2025 UTC via an FALCON 9 launch vehicle from the Air Force Western Test Range (AFWTR). Payload-class satellites include a variety of spacecraft equipped with specific instruments for various scientific and technological missions. These include communications satellites like Starlink; space stations such as the ISS; scientific satellites like the Hubble; Earth observation satellites from companies like Planet Labs, Umbra, and HawkEye 360; GPS; miniature CubeSats for education and research; and military/defense satellites.

Loading next visibility...
Identifier
66747, 2025-276CK
Orbit
Decayed
Country
Flag of USUS
Related business
Manufacturer
Varda Space
Mission
Decayed Commercial Microgravity
Bus & Motor
VW, Unknown motor
Mass
300 kg wet, 55 kg dry
Launch date (UTC)
2025-11-28 (2 months ago)
Launch vehicle
FALCON 9
Launch site
Air Force Western Test Range (AFWTR)
Object type
Payload
Rocket body
Debris
Shape & HBR
Trunc Cone, 2.4 m
Radar Cross Section
RCS unknown

Expand to show TLE details & history
Last TLE update: 6 days ago

TLE from 6 days ago
0 W-SERIES 5
1 66747U 25276CK  26029.50003471  .00061250  00000-0  19219-2 0  9999
2 66747  97.3254 105.2764 0377831  18.6804 254.3538 14.84484964  4380
Epoch: 2026-01-29T12:00Z
TLE epoch observation values (Epoch: 2026-01-29T12:00:02.998Z)
Latitude
-82.6355°
Longitude
-105.10685°
Altitude
724.002 km
Speed
7.449 km/s
True Right ascension
13h 34m 37s
True Declination
-82° 35' 29"
Sunlit
Object was in daylight at epoch
Visualization orbit readout
Latitude
Unknown
Longitude
Unknown
Altitude
Unknown
Speed
Unknown
Apparent Right ascension
Unknown
Apparent Declination
Unknown
Sunlit
N/A
Visualization observer readout
Local Sidereal Time
02:36:51
Azimuth
Unknown
Elevation
Unknown
Doppler factor
Unknown
Orbital elements
Apogee altitude
876.323 km
Perigee altitude
348.09 km
Semi-major axis
6,990.344 km
Eccentricity
0.03778
Inclination
97.3254°
RAAN
105.2764°
Arg. of periapsis
18.6804°
True anomaly
250.2406°
Mean anomaly
254.3538°
Eccentric anomaly
252.29156°
Mean motion
3.7136 °/min
Orbital period
96.94 mins
BSTAR
0.0019219
Loading maneuver chart data...
Computing Atmospheric mass density...
Loading historical data...
Loading historical data...
Loading historical data...
Loading historical data...
Loading historical data...
Loading historical data...
Loading historical data...

Documentation

Showing up to 5 results
|